Regional Weather Roundup
Issued by NWS Wakefield, VA

Home | Current Version | Previous Version | Text Only | Print | Product List | Glossary Off
Versions: 1 2 3 4 5 6 7 8 9 10 11 12 13 14 15 16 17 18 19 20 21 22 23 24 25 26 27 28 29 30 31 32 33 34 35 36 37 38 39 40 41 42 43 44 45 46 47 48 49 50

000
ASUS41 KAKQ 290910
RWRAKQ

REGIONAL WEATHER ROUNDUP
NATIONAL WEATHER SERVICE WAKEFIELD VA
400 AM EST THU JAN 29 2015

Note: "fair" indicates few or no clouds below 12,000 feet with no
significant weather and/or obstructions to visibility. * = Denotes
station may not report precipitation (e.g., rain,snow,etc.),
thunder or fog.

VAZ042-051-052>054-056-291000-
NORTHERN VIRGINIA

CITY           SKY/WX    TMP DP  RH WIND       PRES   REMARKS
WASH NATIONAL  CLEAR     27   9  46 N5        30.35R
DULLES         PTCLDY    15  10  80 CALM      30.33S
FORT BELVOIR   CLEAR     18  11  74 CALM      30.35S
QUANTICO       CLEAR     21  14  74 NW6       30.36S
FREDERICKSBRG* CLEAR     20  15  79 CALM      30.35R
STAFFORD*      CLEAR     17  11  80 CALM      30.38S
WARRENTON      CLEAR     16  16  99 CALM      30.32F
CULPEPER*      CLEAR     16  12  86 CALM      30.33F
MANASSAS*      CLEAR     16  12  86 CALM      30.35R
LEESBURG*      PTCLDY    18  14  86 CALM      30.33S
WINCHESTER     MOCLDY    18   9  68 CALM      30.30F
FRONT ROYAL*   FAIR      16  12  86 CALM      30.30S
LURAY*         FAIR      21  18  86 CALM      30.29F
$$

VAZ048-049-060>072-079>083-291000-
CENTRAL AND SOUTH CENTRAL VIRGINIA

CITY           SKY/WX    TMP DP  RH WIND       PRES   REMARKS
RICHMOND       CLEAR     24  11  57 CALM      30.34S
CHESTERFIELD*  FAIR      18   1  49 CALM      30.34F
PETERSBURG*    CLEAR     17  15  90 CALM      30.34F
HANOVER        CLEAR     18  14  84 CALM      30.35F
TAPPAHANNOCK*  CLEAR     17  12  80 CALM      30.35S
QUINTON*       FAIR      19  13  77 CALM      30.34F
CHARLOTTSVILLE CLEAR     21   9  59 CALM      30.31F
GORDONSVILLE*  FAIR      17  13  85 CALM      30.32F
ORANGE*        PTCLDY    19  16  86 CALM      30.34F
LOUISA*        CLEAR     18  10  73 CALM      30.31F
BUMPASS*       FAIR      18  13  80 CALM      30.33S
FARMVILLE*     PTCLDY    17  11  79 CALM      30.32F
CREWE*         FAIR      17  14  86 CALM      30.32F
FORT PICKETT*  FAIR      20  15  81 CALM      30.32F
CHASE CITY*    FAIR      25  17  69 CALM      30.32F
CLARKSVILLE*   FAIR      21  19  93 CALM      30.32F
SOUTH HILL*    CLEAR     20  15  81 CALM      30.39S
LAWRENCEVILLE* FAIR      19  15  82 CALM      30.33S
EMPORIA*       CLEAR     18  14  86 CALM      30.36S
$$

VAZ088>098-291000-
SOUTHEAST VIRGINIA

CITY           SKY/WX    TMP DP  RH WIND       PRES   REMARKS
NORFOLK        CLEAR     32  14  47 N10       30.32F WCI  24
VIRGINIA BEACH CLEAR     30  16  56 NW3       30.31F
NORFOLK NAVAL  CLEAR     32  14  47 N12       30.34F WCI  23
WEST POINT*    CLEAR     20  15  79 CALM      30.36F
SALUDA*        FAIR      28  12  51 NW5       30.34S
NEWPORT NEWS   CLEAR     26  14  60 N3        30.34S
LANGLEY AFB    CLEAR     23  14  69 NW6       30.33F
FORT EUSTIS    CLEAR     28  13  55 NE3       30.32F
WILLIAMSBURG*    N/A     27  16  63 N3        30.35S
HR EXEC AP*    FAIR      18  12  79 CALM      30.35F
FRANKLIN*      CLEAR     21  13  71 CALM      30.35S
WAKEFIELD      CLEAR     20  13  74 CALM      30.34F
$$

VAZ020-022-025-037-045-291000-
WEST CENTRAL AND SOUTHWEST VIRGINIA

CITY           SKY/WX    TMP DP  RH WIND       PRES   REMARKS
STAUNTON*      CLEAR     17  14  86 CALM      30.29F
WAYNESBORO*    FAIR      17  12  82 CALM      30.26F
HOT SPRINGS VA MOCLDY    28   4  35 S13       30.12S WCI  18
LYNCHBURG      PTCLDY    21  11  65 CALM      30.30F
DANVILLE       CLEAR     22  16  78 SW5       30.32F
SOUTH BOSTON*  FAIR      19  16  86 CALM      30.33F
MARTINSVILLE   PTCLDY    20  17  85 CALM      30.33R
ROANOKE        MOCLDY    24  15  68 CALM      30.30S
BLACKSBURG     MOCLDY    20  14  78 CALM      30.26F
DUBLIN*        MOCLDY    22  19  89 CALM      30.24F
MARION*        FAIR      24  18  78 E3        30.23R
HILLSVILLE*    PTCLDY    28  12  52 S7        30.20F
RICHLANDS*     FAIR      34   9  35 S3        30.15R
WISE*          MOCLDY    32  14  47 S8        30.14F
ABINGDON*      CLEAR     30  20  67 CALM      30.19S
$$

MDZ021>025-VAZ099-100-291000-
SOUTHERN MARYLAND AND THE DELMARVA PENINSULA

CITY           SKY/WX    TMP DP  RH WIND       PRES   REMARKS
PATUXENT RIVER CLEAR     22   9  57 W6        30.34S
BAY BRIDGE APT   N/A     28  10  47 NW3       30.33S
LEONARDTOWN    CLEAR     21  10  63 CALM      30.35R
DOVER          CLEAR     20  11  65 NW1       30.32S
GEORGETOWN     CLEAR     21  10  62 CALM      30.32R
EASTON         CLEAR     23  16  72 CALM      30.36S
CAMBRIDGE      CLEAR     27  16  63 NW3       30.32F
SALISBURY      CLEAR     22  12  65 CALM      30.32S
OCEAN CITY     CLEAR     22  10  60 NW3       30.32R
WALLOPS ISLAND CLEAR     23  12  62 N5        30.32S
ACCOMACK*      CLEAR     28  12  50 N5        30.32F
$$

NCZ012>017-030>032-291000-
NORTH CENTRAL AND EASTERN NORTH CAROLINA

CITY           SKY/WX    TMP DP  RH WIND       PRES   REMARKS
ROANOKE RAPIDS FAIR      21  19  93 CALM      30.35S
RALEIGH        PTCLDY    23  16  74 CALM      30.34S
ELIZABETH CITY CLEAR     23  13  65 NW3       30.33S
AHOSKIE*       CLEAR     21  14  73 CALM      30.35S
EDENTON*       CLEAR     25  16  68 CALM      30.33F
CURRITUCK*     CLEAR     26  16  63 W3        30.33S
KILL DEVIL HLS CLEAR     33  17  53 N5        30.30S
MANTEO         CLEAR     32  18  55 N8        30.31S
CAPE HATTERAS  CLEAR     34  24  67 N7        30.30F
TARBORO*       FAIR      20  19  93 CALM      30.36S
GOLDSBORO      CLEAR     25  24  96 CALM      30.33F
WASHINGTON     CLEAR     26  14  60 CALM      30.34S
GREENVILLE     CLEAR     23  19  86 CALM      30.35R
NEW BERN       CLEAR     29  14  53 N5        30.34F
WILMINGTON     CLEAR     25  21  85 CALM      30.33F
$$

VAZ048-291000-
ELSEWHERE

CITY           SKY/WX    TMP DP  RH WIND       PRES   REMARKS
HARRISBURG PA  PTCLDY    16   6  65 NW10      30.32R WCI   4
BALTIMORE      CLEAR     17   8  67 W3        30.33S
ANNAPOLIS      CLEAR     24   7  48 CALM      30.33S
ANDREWS AFB    CLEAR     22  10  59 CALM      30.32S
PHILADELPHIA   CLEAR     24   3  40 CALM      30.32S
HENDERSON NC   CLEAR     26  13  56 CALM      30.32F
GREENSBORO     PTCLDY    29  15  56 W3        30.29S
ROCKY MOUNT    CLEAR     22  16  78 CALM      30.35S
$$

VAZ100-291000-
MARINE

STATION/POSITION TIME  TEMP    WIND        PRES    WAVE   SWELL
                       AIR SEA DIR/SP/G            HT/PER HT/PER
                 (UTC) (F)     (DEG/KT/KT) (MB)    (FT/S) (FT/S)
BRANDYWINE LGT   0800   30      20/ 16/ 17 1026.3F
CAPE MAY NJ      0900   27 35   20/  3/  6 1026.0S
LEWES DE         0900   31 35   10/ 14/ 15 1026.4R
15NM E FENWICK I 0900   31 40              1025.4F   5/ 6
OCEAN-CITY-INLET 0900   27 37  330/  6/  8 1026.2R
WACHAPREAGUE VA  0900   27 36  290/  1/  4 1026.7F
THOMAS POINT MD  0900   27 35  320/  7/  7 1028.3R
COVE POINT MD    0900   29     350/  9/ 11 1026.8S
SOLOMONS ISLAND  0900      37                N/A
BISHOPS HEAD MD  0900   26 31  330/  4/  5 1026.4S
PINEY POINT MD   0900          360/  9/ 10   N/A
CAMBRIDGE MD     0900   29 35  310/  4/  6 1026.8F
LEWISETTA VA     0900   28 35  300/  5/  6 1027.1F
RAPPAHANNOCK LGT 0900          360/ 14/ 16 1027.2F
YORK RVR RNG VA  0900   30     340/  9/ 10 1026.6S
YORKTOWN VA      0900   29 40  330/  8/  9 1027.2R
DOMINION TERM VA 0900   30      CALM  /  3 1027.2S
KIPTOPEKE VA     0900      43   40/  5/  8   N/A
CHES BAY BRIDGE  0900   34 40  340/ 12/ 16 1026.3F
CAPE HENRY VA    0900   34     360/ 16/ 19 1025.3F
CHESAPEAKE LGHT  0800   34     360/ 16/ 19 1027.0S
WILLOUBY STN VA  0900   31     340/ 11/ 13 1027.3F
S CRANEY ISL VA  0900          350/ 10/ 13 1026.9F
CAPE HENRY BUOY  0800      42                N/A     5/ 6   2/13
CAPE CHARLES BUO 0900      41                N/A     4/13   3/13
OFFSHORE WE BUOY 0900      43                N/A     6/ 7   3/ 7
64NM E OF VA BCH 0900   36 50  350/ 14/ 17 1025.0S   6/10   5/10
DUCK PIER NC     0900   35 42   10/ 12/ 16 1025.5R
44100 DUCK FRF   0900      45                N/A     5/ 7   2/13
44056 DUCK FRF   0900      42                N/A     4/13   2/13
OREGON INLET NC  0900   33 42  330/  8/ 11 1026.2S
HATTERAS NC      0900   36 43   10/ 13/ 15 1026.3S
DIAMOND SHLS NC  0900   40 71  350/ 16/ 21 1025.3F   7/11   7/11
CAPE LOOKOUT NC  0800   36      10/  8/ 12 1026.5F
$$



USA.gov is the U.S. government's official web portal to all federal, state and local government web resources and services.